カタログに戻る

LEMUR-2 CARROLLEMO

運用中科学SSO
NORAD 68489·PAYLOAD·🇩🇪 Germany

打ち上げ Mar 30, 2026 から Vandenberg Space Force Base

Loading…

次のパス (今後24時間)

TLE

最新Source: Space-Track

元期: Sep 14, 2026, 14:32 UTC

1 68489U 26067CB  26257.60558747  .00002119  00000-0  21403-3 0  9996
2 68489  97.7626 214.3611 0003427 109.7396 250.4192 14.92097477 25058

AllMySatでLEMUR-2 CARROLLEMOをリアルタイム追跡

Download on the App Store